• In Uzbekistan
  • List of Countries
  • For 7 days
  • Water Temperature
  • Satellite Maps
  • Weather Map
  • Weather Widgets
  • user-avatar
    Login

    Hourly Weather Saurimo

    Today, 18 January, Wednesday

    Time Temperature Precipitation Wind Pressure Humidity
    00:00 +23°C° 0.1 mm 1 mps 668 mmHg 87%
    01:00 +23°C° 0 mm 1 mps 668 mmHg 88%
    02:00 +22°C° 0.6 mm 1 mps 668 mmHg 90%
    03:00 +22°C° 0.6 mm 1 mps 668 mmHg 92%
    04:00 +21°C° 0.6 mm 1 mps 668 mmHg 94%
    05:00 +22°C° 0.3 mm 1 mps 669 mmHg 93%
    06:00 +23°C° 0.3 mm 1 mps 669 mmHg 92%
    07:00 +24°C° 0 mm 2 mps 670 mmHg 89%
    08:00 +25°C° 0.9 mm 2 mps 670 mmHg 84%
    09:00 +26°C° 0.9 mm 2 mps 670 mmHg 80%
    10:00 +27°C° 0.9 mm 3 mps 670 mmHg 76%
    11:00 +28°C° 0.6 mm 3 mps 670 mmHg 72%
    12:00 +28°C° 0.6 mm 3 mps 670 mmHg 68%
    13:00 +28°C° 0 mm 3 mps 670 mmHg 70%
    14:00 +27°C° 0.8 mm 2 mps 670 mmHg 75%
    15:00 +27°C° 0.8 mm 2 mps 669 mmHg 79%
    16:00 +26°C° 0.8 mm 2 mps 669 mmHg 84%
    17:00 +25°C° 0.4 mm 1 mps 669 mmHg 87%
    18:00 +24°C° 0.4 mm 1 mps 669 mmHg 91%
    19:00 +23°C° 0.4 mm 1 mps 669 mmHg 94%
    20:00 +23°C° 0 mm 1 mps 669 mmHg 94%
    21:00 +22°C° 0 mm 1 mps 669 mmHg 95%
    22:00 +22°C° 0 mm 1 mps 670 mmHg 95%
    23:00 +22°C° 0.3 mm 1 mps 669 mmHg 95%

    Tomorrow, 19 January, Thursday

    Time Temperature Precipitation Wind Pressure Humidity
    00:00 +22°C° 0.3 mm 1 mps 669 mmHg 95%
    01:00 +22°C° 0.3 mm 1 mps 669 mmHg 95%
    02:00 +21°C° 0.3 mm 1 mps 669 mmHg 94%
    03:00 +21°C° 0.3 mm 1 mps 669 mmHg 94%
    04:00 +21°C° 0.3 mm 1 mps 669 mmHg 93%
    05:00 +21°C° 0.3 mm 1 mps 669 mmHg 92%
    06:00 +22°C° 0.3 mm 1 mps 670 mmHg 91%
    07:00 +22°C° 0.3 mm 1 mps 670 mmHg 91%
    08:00 +23°C° 0.3 mm 2 mps 671 mmHg 86%
    09:00 +24°C° 0.3 mm 2 mps 671 mmHg 80%
    10:00 +25°C° 0.3 mm 2 mps 672 mmHg 75%
    11:00 +26°C° 0.1 mm 2 mps 672 mmHg 68%
    12:00 +28°C° 0.1 mm 2 mps 672 mmHg 61%
    13:00 +29°C° 0.1 mm 2 mps 672 mmHg 54%
    14:00 +28°C° 0.1 mm 2 mps 671 mmHg 58%
    15:00 +28°C° 0.1 mm 2 mps 670 mmHg 62%
    16:00 +27°C° 0.1 mm 1 mps 670 mmHg 67%
    17:00 +26°C° 0 mm 1 mps 670 mmHg 71%
    18:00 +24°C° 0 mm 1 mps 670 mmHg 75%
    19:00 +23°C° 0 mm 1 mps 670 mmHg 80%
    20:00 +22°C° 0 mm 1 mps 670 mmHg 80%
    21:00 +22°C° 0 mm 1 mps 670 mmHg 81%
    22:00 +21°C° 0 mm 1 mps 670 mmHg 82%
    23:00 +21°C° 0 mm 1 mps 670 mmHg 82%

    Day after tomorrow, 20 January, Friday

    Time Temperature Precipitation Wind Pressure Humidity
    00:00 +21°C° 0 mm 1 mps 670 mmHg 82%
    01:00 +20°C° 0 mm 1 mps 669 mmHg 82%
    02:00 +20°C° 0 mm 1 mps 669 mmHg 82%
    03:00 +20°C° 0 mm 1 mps 669 mmHg 82%
    04:00 +19°C° 0 mm 1 mps 669 mmHg 82%
    05:00 +20°C° 0 mm 1 mps 669 mmHg 80%
    06:00 +21°C° 0 mm 1 mps 670 mmHg 78%
    07:00 +22°C° 0 mm 1 mps 670 mmHg 76%
    08:00 +24°C° 0 mm 1 mps 671 mmHg 67%
    09:00 +27°C° 0 mm 1 mps 672 mmHg 58%
    10:00 +30°C° 0 mm 1 mps 672 mmHg 49%
    11:00 +31°C° 0 mm 2 mps 672 mmHg 45%
    12:00 +32°C° 0 mm 2 mps 671 mmHg 41%
    13:00 +34°C° 0 mm 2 mps 670 mmHg 38%
    14:00 +32°C° 0.1 mm 2 mps 670 mmHg 42%
    15:00 +31°C° 0.1 mm 2 mps 669 mmHg 46%
    16:00 +31°C° 0.1 mm 2 mps 668 mmHg 50%
    17:00 +29°C° 0 mm 2 mps 668 mmHg 56%
    18:00 +26°C° 0 mm 1 mps 668 mmHg 63%
    19:00 +24°C° 0 mm 1 mps 668 mmHg 69%
    20:00 +24°C° 0 mm 1 mps 668 mmHg 70%
    21:00 +23°C° 0 mm 1 mps 669 mmHg 71%
    22:00 +23°C° 0 mm 1 mps 669 mmHg 72%
    23:00 +22°C° 0 mm 1 mps 669 mmHg 74%

    21 January, Saturday

    Time Temperature Precipitation Wind Pressure Humidity
    00:00 +22°C° 0 mm 1 mps 668 mmHg 75%
    01:00 +21°C° 0 mm 1 mps 668 mmHg 76%
    02:00 +21°C° 0 mm 1 mps 668 mmHg 77%
    03:00 +21°C° 0 mm 1 mps 668 mmHg 78%
    04:00 +20°C° 0 mm 1 mps 668 mmHg 79%
    05:00 +20°C° 0 mm 2 mps 668 mmHg 78%
    06:00 +21°C° 0 mm 2 mps 669 mmHg 77%
    07:00 +21°C° 0 mm 2 mps 670 mmHg 75%
    08:00 +25°C° 0 mm 2 mps 670 mmHg 66%
    09:00 +27°C° 0 mm 3 mps 671 mmHg 57%
    10:00 +30°C° 0 mm 3 mps 671 mmHg 48%
    11:00 +31°C° 0 mm 3 mps 671 mmHg 45%
    12:00 +33°C° 0 mm 3 mps 670 mmHg 42%
    13:00 +34°C° 0 mm 3 mps 669 mmHg 40%
    14:00 +33°C° 0.3 mm 3 mps 669 mmHg 45%
    15:00 +31°C° 0.3 mm 2 mps 668 mmHg 50%
    16:00 +30°C° 0.3 mm 2 mps 668 mmHg 55%
    17:00 +28°C° 0.5 mm 2 mps 668 mmHg 64%
    18:00 +26°C° 0.5 mm 1 mps 668 mmHg 72%
    19:00 +23°C° 0.5 mm 1 mps 668 mmHg 81%
    20:00 +23°C° 0.3 mm 1 mps 668 mmHg 82%
    21:00 +23°C° 0.3 mm 1 mps 669 mmHg 83%
    22:00 +22°C° 0.3 mm 1 mps 669 mmHg 84%
    23:00 +22°C° 0.1 mm 1 mps 669 mmHg 85%

    22 January, Sunday

    Time Temperature Precipitation Wind Pressure Humidity
    00:00 +22°C° 0.1 mm 1 mps 668 mmHg 86%
    01:00 +22°C° 0.1 mm 1 mps 668 mmHg 87%
    02:00 +21°C° 0.2 mm 1 mps 668 mmHg 88%
    03:00 +21°C° 0.2 mm 1 mps 668 mmHg 89%
    04:00 +21°C° 0.2 mm 1 mps 668 mmHg 91%
    05:00 +21°C° 0 mm 1 mps 668 mmHg 90%
    06:00 +22°C° 0 mm 1 mps 669 mmHg 88%
    07:00 +22°C° 0 mm 1 mps 670 mmHg 87%
    08:00 +24°C° 0.2 mm 1 mps 670 mmHg 78%
    09:00 +27°C° 0.2 mm 1 mps 671 mmHg 70%
    10:00 +29°C° 0.2 mm 1 mps 671 mmHg 61%
    11:00 +29°C° 0.2 mm 2 mps 670 mmHg 58%
    12:00 +30°C° 0.2 mm 2 mps 670 mmHg 55%
    13:00 +30°C° 0.2 mm 3 mps 669 mmHg 52%
    14:00 +30°C° 0.8 mm 2 mps 669 mmHg 59%
    15:00 +29°C° 0.8 mm 2 mps 669 mmHg 65%
    16:00 +28°C° 0.8 mm 2 mps 668 mmHg 71%
    17:00 +26°C° 0.8 mm 2 mps 669 mmHg 77%
    18:00 +25°C° 0.8 mm 1 mps 669 mmHg 82%
    19:00 +23°C° 0.8 mm 1 mps 670 mmHg 88%
    20:00 +23°C° 0.4 mm 1 mps 670 mmHg 90%
    21:00 +22°C° 0.4 mm 1 mps 670 mmHg 91%
    22:00 +22°C° 0.4 mm 1 mps 671 mmHg 93%
    23:00 +21°C° 0 mm 1 mps 670 mmHg 94%

    23 January, Monday

    Time Temperature Precipitation Wind Pressure Humidity
    00:00 +21°C° 0 mm 1 mps 670 mmHg 95%
    01:00 +20°C° 0 mm 2 mps 669 mmHg 96%
    02:00 +20°C° 0 mm 1 mps 669 mmHg 96%
    03:00 +20°C° 0 mm 1 mps 669 mmHg 97%
    04:00 +20°C° 0 mm 1 mps 669 mmHg 97%
    05:00 +20°C° 0 mm 1 mps 670 mmHg 95%
    06:00 +19°C° 0 mm 2 mps 670 mmHg 93%
    07:00 +20°C° 0 mm 2 mps 671 mmHg 91%
    08:00 +23°C° 0 mm 2 mps 671 mmHg 80%
    09:00 +25°C° 0 mm 3 mps 672 mmHg 69%
    10:00 +28°C° 0 mm 3 mps 672 mmHg 59%
    11:00 +29°C° 0.1 mm 3 mps 672 mmHg 56%
    12:00 +30°C° 0.1 mm 3 mps 671 mmHg 52%
    13:00 +31°C° 0.1 mm 3 mps 671 mmHg 49%
    14:00 +30°C° 0.1 mm 3 mps 671 mmHg 52%
    15:00 +29°C° 0.1 mm 3 mps 670 mmHg 55%
    16:00 +29°C° 0.1 mm 2 mps 670 mmHg 57%
    17:00 +27°C° 0.1 mm 2 mps 670 mmHg 64%
    18:00 +25°C° 0.1 mm 2 mps 670 mmHg 72%
    19:00 +22°C° 0.1 mm 1 mps 670 mmHg 79%
    20:00 +22°C° 0 mm 1 mps 670 mmHg 81%
    21:00 +21°C° 0 mm 1 mps 670 mmHg 83%
    22:00 +21°C° 0 mm 1 mps 670 mmHg 85%
    23:00 +20°C° 0 mm 1 mps 670 mmHg 86%
    Show more